Torna al catalogo

DELTA 1 DEB

AttivoSSO
NORAD 21547·DEBRIS·🇺🇸 United States

Lanciato Jun 12, 1975 da Vandenberg Space Force Base

Loading…

Prossimi Passaggi (prossime 24 ore)

TLE

AggiornatoSource: Space-Track

Epoca: Sep 14, 2026, 03:24 UTC

1 21547U 75052HB  26257.14223545  .00000525  00000-0  64819-3 0  9999
2 21547  99.7355 127.1644 0249726 356.0857 154.5277 13.57690415743318

Traccia DELTA 1 DEB in tempo reale con AllMySat

Download on the App Store